sat.trackr.live / text

‹ back to catalog

STARLINK-34817

NORAD 65362 · 2025-190M

PAYLOAD ACTIVE UNKNOWN

§ Identity

Operator
Country
US
Launch date
2025-08-28
Launch site
AFETR
Launch vehicle
Mass (kg)
RCS (m²)

Purposes: comms

External: N2YO · Heavens-Above · Gunter

§ Orbital elements

Epoch: 2026-09-20T11:29:14.883072Z

Period
93.85 min
Inclination
53.1597°
Eccentricity
0.0001130
Mean motion
15.34410668 rev/d
Perigee alt
461.9 km
Apogee alt
463.4 km
Semi-major
6,840.8 km
B*
4.3276e-4
RAAN
339.4706°
Arg perigee
116.7987°
Mean anomaly
243.3131°
Rev number
5,963

§ Raw data

STARLINK-348171 65362U 25190M   26263.47864448  .00014278  00000+0  43276-3 0  99992 65362  53.1597 339.4706 0001130 116.7987 243.3131 15.34410668 59638

JSON: /api/v1/satellites/65362 · /tle

For live sub-satellite position, see the globe view (requires WebGL).

§ Visibility from observer

Set your observer location to see the next 7 days of passes ≥ 10°. The values pass through the URL so the page stays shareable.

No JS? Fill the form by hand. The geolocation button needs JavaScript.